Regional Weather Roundup
Issued by NWS

Home | Current Version | Previous Version | Graphics & Text | Print | Product List | Glossary On
Versions: 1 2 3 4 5 6 7 8 9 10 11 12 13 14 15 16 17 18 19 20 21 22 23 24 25 26 27 28 29 30 31 32 33 34 35 36 37 38 39 40 41 42 43 44 45 46 47 48 49 50
000
ASUS45 KSLC 271210
RWRUT

UTAH REGIONAL WEATHER ROUNDUP
NATIONAL WEATHER SERVICE SALT LAKE CITY UT
600 AM MDT WED AUG 27 2014

UTZ001>011-023>025-271300-

NORTHERN UTAH

CITY           SKY/WX    TMP DP  RH WIND       PRES   REMARKS
HILL AFB       CLOUDY    59  49  71 E2        30.21R
LOGAN          CLOUDY    55  53  93 NW3       30.18S
OGDEN          MOCLDY    59  50  72 S7        30.19R
PROVO AIRPORT  CLOUDY    57  54  88 CALM      30.22R
SALT LAKE CITY MOCLDY    61  53  75 CALM      30.19S
VERNAL         CLOUDY    57  54  89 NW5       30.23R
WENDOVER       PTCLDY    61  48  63 CALM      30.18S
HEBER CITY     CLOUDY    54  50  87 CALM      30.23S
WEST JORDAN    CLOUDY    59  59 100 CALM      30.21S

$$

UTZ012>022-026-027-271300-

SOUTHERN UTAH

CITY           SKY/WX    TMP DP  RH WIND       PRES   REMARKS
BRYCE CANYON   CLEAR     38  36  92 CALM      30.35R
CEDAR CITY     CLEAR     49  44  83 E3        30.24R
MILFORD        PTCLDY    51  49  92 CALM      30.22R
MOAB/CYNLANDS  CLOUDY    60  57  89 SE3       30.18S
PRICE          CLOUDY    57  49  74 CALM      30.24S
ST GEORGE      PTSUNNY   66  48  52 CALM      30.16S
KANAB          MOCLDY    52  50  93 NW12      30.27S

$$

REGIONAL REPORTS     COLORADO/ARIZONA

CITY           SKY/WX    TMP DP  RH WIND       PRES   REMARKS
CRAIG, CO      LGT RAIN  55  52  89 NE6       30.28S
GRAND JUNCTION CLOUDY    57  55  93 SE7       30.21S
RIFLE          CLOUDY    56  54  93 NE3       30.26R
MONTROSE       CLOUDY    55  54  96 S6        30.30R
CORTEZ         CLOUDY    52  52 100 SE3       30.32S
PAGE, AZ       PTCLDY    59  50  72 S5        30.22F
GRAND CANYON     N/A    N/A N/A N/A MISG        N/A
KINGMAN        CLEAR     67  58  72 SE9       30.10S
FLAGSTAFF      CLOUDY    52  50  93 N7        30.37S

$$

REGIONAL REPORTS    NEVADA/IDAHO/WYOMING

CITY           SKY/WX    TMP DP  RH WIND       PRES   REMARKS
LAS VEGAS, NV  CLEAR     76  46  34 S6        30.00R
ELY            PTCLDY    39  38  96 S10       30.29S WCI  32
ELKO           CLEAR     49  44  83 N6        30.23R
POCATELLO, ID  CLEAR     52  50  93 S5        30.19R
BURLEY         CLEAR     51  47  86 S3        30.16R
EVANSTON, WY   CLOUDY    50  44  80 SE3       30.29S
ROCK SPRINGS   LGT RAIN  51  48  89 SE6       30.28F

$$



USA.gov is the U.S. government's official web portal to all federal, state and local government web resources and services.